Y. KechinとV. Lipunov (モスクワ大学:M.V.ロモノーソフ・モスクワ国立総合大学, Sternberg天文
研究所)ま通報によると、6月19日、メキシコ Sonora州CananeaにあるGuillermo Haro天体物理観測所
にある2台のMASTER 0.4-cm f/2.5 ロボット望遠鏡で、ガンマ線バーストEP260618Aの可視光対応天体
を探索中に得た、多数の180-秒露出フィルターなしCCD画像(限界光度21.2等)から、自動検出システム
により新たに小惑星状天体を発見した。
この天体は、小惑星センター(MPC)のNEOCP webpageに公表後、そのほぼ放物線状の軌道に基づき、MPC
によってPCCP webpageに移された。
A. AlettiとL. Buzzi (Varese, イタリア)によると、7月5.02日〜5.05日UT、0.84-m f/3.5 ニュートン
式反射望遠鏡で得た、2枚のスタックした30-秒露出のCMOS画像では、視野内の恒星に比べて輪郭がぼや
けた6"のコマが見え、 p.a. 185°に6"かすかに尾があった。
R. Werykウェスタン・オンタリオ大学物理学・天文学部)によると、7月6.5日UT、2".2-2".3のシーイン
グ条件下、HaleakalaのPan-STARRS2 1.8-m Ritchey-Chretien 反射望遠鏡で得た撮影された4枚の45秒
露光のwバンドサーベイ画像では、2".8(半値全幅:FWHM)の拡散したコマと、p.a. 175°に短い尾の気配
がある。7月8.44日、0".7のシーイング条件下、WerykとR. WainscoaがMaunakeaの3.6-m Canada-France-
Hawaii望遠鏡で得た3枚の60-秒gri-バンド露出フォローアップ画像では、集光した1".5 (FWHM)の頭部が
見え、p.a. 155-190°にわたって18"の広い尾がある。
E. Bryssinck (Kruibeke, ベルギー)によると、7月8.98日〜9.03日UT、0.4-m f/3.8反射望遠鏡で得た、
25枚のスタックしたフィルタなしのCCD画像では、拡散した8"りコマが見えるが、尾はない。5".0の円形
範囲の光度は20.1等であった。さらに、7月12.98日〜13.03日、 30枚のスタックした120-秒露出CCD画像
では、拡散した7".8のコマと中央集光が見られるが、尾はなかった。5".0の円形範囲の光度は19.8等で
あった。
吉本勝巳氏(山口県熊毛郡平生町)は、7月11.6日、0.3-m f/4 反射望遠鏡で得た、32枚のスタックした
90-秒露出CMOS画像では、13"のかすかなコマが見られた。p.a. 280°にかすかな10"の尾が見られる。
全V光度は19.8等。
佐藤英貴氏(東京都文京区)は、7月12.6日、0.51-m f/6.8 アストログラフ, Siding Spring, NSW,オース
トラリアの遠隔操作で得た、14枚のスタックした60-秒CCD画像では、強く集光した8"のコマが見えるが
尾はなかった。4".3の円形範囲で測定した光度は19.6等であった。
彗星機能の報告は次のとおり、
OC Date Reporter Coma Tail PA Comet Date
(T/P) Reported
204 2026-07-05 A. Aletti 6" 6" 185 T 2026-07-06.97
F52 2026-07-06 R. Weryk T 2026-07-07.86
T14 2026-07-08 R. Weryk 0".7 18" 155 T 2026-07-08.49
R49 2026-07-08 F. Carrasco 36" P 2026-07-09.48
B96 2026-07-08 E. Bryssinck 8" P 2026-07-09.30
P87 2026-07-11 K. Yoshimoto 13" P 2026-07-12.17
Q62 2026-07-12 H. Sato 8" T 2026-07-13.00
B96 2026-07-12 E. Bryssinck 8" P 2026-07-13.55
発見位置は次のとおり、(PCCP MAS0006)
2026 UT R.A. (2000) Decl. Mag.
June 19.30148 18 30 22.46 +23 14 51.0 20.3
19.31031 18 30 22.22 +23 14 52.7 20.6
19.31914 18 30 22.06 +23 14 53.9 20.8
19.32797 18 30 21.83 +23 14 54.7 20.3
19.33682 18 30 21.61 +23 14 56.0 20.3
26.39219 18 27 35.79 +23 31 02.5 20.3
26.42473 18 27 35.01 +23 31 06.5 20.5
26.45792 18 27 34.20 +23 31 10.0 20.6
MPCの双曲線軌道要素、位置推算表は次のとおり、
Orbital elements:
C/2026 M3 (MASTER)
Epoch 2026 June 9.0 TT = JDT 2461200.5
T 2026 Dec. 25.21204 TT Pike
q 12.0886328 (2000.0) P Q
z -0.0008324 Peri. 49.41586 +0.08862767 -0.20913281
+/-0.0010631 Node 282.50262 -0.89469069 +0.41302370
e 1.0100622 Incl. 94.03786 +0.43780555 +0.88638304
From 177 observations 2026 June 19-July 15, mean residual 0".5.
Ephemeris:
Date TT R. A. (2000) Decl. Delta r Elong. Phase m1
2026 06 15 18 32 01.7 +23 03 26 11.4309 12.1268 131.4 3.6 20.0
...
2026 06 30 18 26 10.3 +23 38 00 11.4035 12.1211 133.1 3.5 20.0
...
2026 07 08 18 23 01.3 +23 50 21 11.4095 12.1182 132.4 3.6 20.0
...
2026 07 14 18 20 42.0 +23 56 51 11.4233 12.1162 131.1 3.6 20.0
2026 07 15 18 20 19.1 +23 57 43 11.4264 12.1159 130.9 3.6 20.0
2026 07 16 18 19 56.4 +23 58 30 11.4297 12.1155 130.6 3.7 20.0
...
2026 07 22 18 17 42.9 +24 01 56 11.4537 12.1136 128.6 3.8 20.0
...
2026 07 30 18 14 55.0 +24 03 11 11.4969 12.1111 125.2 3.9 20.0
...
2026 08 14 18 10 21.4 +23 56 25 11.6085 12.1068 117.3 4.3 20.1
(MPEC 2026-N90、CBET 5717)